GW0523 Weather Reports


Display with metric or nautical units.
time (UTC)temp
F
wind
direction
speed
MPH
gust
MPH
rain 1hr
in
rain 24hr
in
rain mn
in
humidity
%
barometer
mb
20260505171051 52 0 5.0 8.0 0.00 0.00 0.00 61 1011.2
20260505170106 52 0 3.0 8.0 0.00 0.00 0.00 63 1011.2
20260505165142 52 79 3.0 4.0 0.00 0.00 0.00 64 1011.4
20260505164138 52 4.0 6.0 0.00 0.00 0.00 65 1011.3
20260505163125 52 0 4.0 7.0 0.00 0.00 0.00 65 1011.4
20260505162120 51 11 5.0 9.0 0.00 0.00 0.00 67 1011.4
20260505161136 51 0 6.0 8.0 0.00 0.00 0.00 66 1011.4
20260505160130 52 0 6.0 9.0 0.00 0.00 0.00 66 1011.5
20260505153056 52 90 2.0 4.0 0.00 0.00 0.00 67 1011.4
20260505152051 52 90 3.0 8.0 0.00 0.00 0.00 68 1011.5
20260505151048 52 0 7.0 10.0 0.00 0.00 0.00 66 1011.5
20260505140128 53 269 1.0 4.0 0.00 0.00 0.00 68 1011.8
20260505124103 53 0 6.0 8.0 0.00 0.00 0.00 62 1011.7
20260505123040 54 0 3.0 5.0 0.00 0.00 0.00 63 1011.6
20260505122135 53 0 2.0 4.0 0.00 0.00 0.00 64 1011.6
20260505121150 53 334 3.0 5.0 0.00 0.00 0.00 68 1011.7
20260505120125 51 0 5.0 7.0 0.00 0.00 0.00 67 1011.8
20260505115121 52 0 4.0 8.0 0.00 0.00 0.00 70 1011.8
20260505114115 51 0 4.0 7.0 0.00 0.00 0.00 71 1011.8
20260505113111 50 0 6.0 11.0 0.00 0.00 0.00 71 1012.0
20260505112106 50 6.0 8.0 0.00 0.00 0.00 71 1012.0
20260505111102 50 0 8.0 11.0 0.00 0.00 0.00 71 1012.1
20260505102040 48 2.0 4.0 0.00 0.00 0.00 82 1012.3
20260505101036 48 5.0 7.0 0.00 0.00 0.00 80 1012.3
20260505100132 48 90 2.0 3.0 0.00 0.00 0.00 76 1012.3
20260505095128 49 0 7.0 10.0 0.00 0.00 0.00 73 1012.3
20260505094124 49 0 8.0 11.0 0.00 0.00 0.00 71 1012.2
20260505093120 50 0 8.0 9.0 0.00 0.00 0.00 70 1012.1
20260505092115 50 6.0 8.0 0.00 0.00 0.00 70 1012.1
20260505091110 50 0 8.0 9.0 0.00 0.00 0.00 67 1012.1
20260505090106 51 0 8.0 10.0 0.00 0.00 0.00 64 1012.1
20260505085101 52 13 3.0 5.0 0.00 0.00 0.00 61 1012.2
20260505084118 53 0 5.0 7.0 0.00 0.00 0.00 60 1012.2
20260505083054 56 23 3.0 5.0 0.00 0.00 0.00 55 1012.2
20260505082109 55 15 3.0 5.0 0.00 0.00 0.00 53 1012.2
20260505081104 54 22 4.0 7.0 0.00 0.00 0.00 56 1012.2
20260505080039 54 0 6.0 8.0 0.00 0.00 0.00 58 1012.2
20260505075054 52 356 6.0 8.0 0.00 0.00 0.00 58 1012.2
20260505074029 53 0 8.0 11.0 0.00 0.00 0.00 57 1012.2
20260505073124 53 318 3.0 7.0 0.00 0.00 0.00 60 1012.2
20260505072120 53 329 4.0 5.0 0.00 0.00 0.00 61 1012.2
20260505071116 53 355 3.0 7.0 0.00 0.00 0.00 62 1012.2
20260505070113 53 326 3.0 4.0 0.00 0.00 0.00 63 1012.2
20260505065108 53 6 1.0 3.0 0.00 0.00 0.00 66 1012.3
20260505064123 51 315 1.0 3.0 0.00 0.00 0.00 71 1012.2
20260505063058 49 0.0 0.0 0.00 0.00 0.00 72 1012.2
20260505062054 48 0.0 0.0 0.00 0.00 0.00 73 1012.2
20260505061049 47 0.0 0.0 0.00 0.00 0.00 75 1012.2
20260505060046 46 0.0 0.0 0.00 0.00 0.00 75 1012.2
20260505055042 46 0.0 0.0 0.00 0.00 0.00 77 1012.2
20260505054058 46 293 1.0 3.0 0.00 0.00 0.00 80 1012.1
20260505053034 46 289 1.0 3.0 0.00 0.00 0.00 85 1012.2
20260505052029 45 0 0.0 2.0 0.00 0.00 0.00 93 1012.2
20260505051024 43 338 1.0 3.0 0.00 0.00 0.00 94 1012.2
20260505050119 43 0.0 0.0 0.00 0.00 0.00 93 1012.2
20260505041058 44 0.0 0.0 0.00 0.00 0.00 92 1011.9
20260505040053 44 0.0 0.0 0.00 0.00 0.00 92 1011.9
20260505035048 45 0.0 0.0 0.00 0.00 0.00 92 1012.0
20260505034123 46 0.0 0.0 0.00 0.00 0.00 88 1012.0
20260505033038 46 0.0 0.0 0.00 0.00 0.00 89 1011.9
20260505032034 46 0.0 0.0 0.00 0.00 0.00 88 1012.0
20260505031030 46 0.0 0.0 0.00 0.00 0.00 88 1012.0
20260505030026 47 0.0 0.0 0.00 0.00 0.00 89 1011.9
20260505025021 47 0.0 0.0 0.00 0.00 0.00 88 1012.0
20260505024117 47 0.0 0.0 0.00 0.00 0.00 88 1012.0
20260505023132 48 0.0 0.0 0.00 0.00 0.00 88 1012.0
20260505022107 48 0.0 0.0 0.00 0.00 0.00 88 1012.1
20260505021123 48 0.0 0.0 0.00 0.00 0.00 88 1012.0
20260505020119 48 0.0 0.0 0.00 0.00 0.00 88 1012.0
20260505015055 48 0.0 0.0 0.00 0.00 0.00 88 1012.2
20260505014052 48 0.0 0.0 0.00 0.00 0.00 88 1012.4
20260505013048 48 0.0 0.0 0.00 0.00 0.00 88 1012.5
20260505012043 48 0.0 0.0 0.00 0.00 0.00 88 1012.6
20260505011038 48 0.0 0.0 0.00 0.00 0.00 88 1012.6
20260505010033 48 0.0 0.0 0.00 0.00 0.00 88 1012.8
20260505005029 48 0.0 0.0 0.00 0.00 0.00 89 1012.8
20260505004025 48 0.0 0.0 0.00 0.00 0.00 89 1012.8
20260505003021 48 0.0 0.0 0.00 0.00 0.00 88 1012.9
20260505002117 48 0.0 0.0 0.00 0.00 0.00 88 1012.7
20260505001132 48 0.0 0.0 0.00 0.00 0.00 87 1012.9
20260505000107 48 0.0 0.0 0.00 0.00 0.00 87 1012.9
20260504235122 48 0.0 0.0 0.00 0.00 0.00 87 1013.0
20260504234057 48 0.0 0.0 0.00 0.00 0.00 86 1013.1
20260504233152 48 0.0 0.0 0.00 0.00 0.00 86 1013.2
20260504232148 49 0.0 0.0 0.00 0.00 0.00 86 1013.1
20260504231144 49 0.0 0.0 0.00 0.00 0.00 85 1013.1
20260504230140 49 0.0 2.0 0.00 0.00 0.00 85 1013.0
20260504225136 49 90 1.0 3.0 0.00 0.00 0.00 85 1013.1
20260504224131 49 90 2.0 3.0 0.00 0.00 0.00 84 1013.2
20260504223206 50 90 2.0 4.0 0.00 0.00 0.00 84 1013.2
20260504222121 50 90 3.0 4.0 0.00 0.00 0.00 84 1013.2
20260504221117 50 90 2.0 4.0 0.00 0.00 0.00 84 1013.3
20260504220114 51 0.0 2.0 0.00 0.00 0.00 84 1013.4
20260504215109 51 90 3.0 5.0 0.00 0.00 0.00 85 1013.4
20260504214145 51 60 3.0 7.0 0.00 0.00 0.00 86 1013.5
20260504213101 51 3.0 4.0 0.00 0.00 0.00 86 1013.4
20260504212057 51 90 2.0 4.0 0.00 0.00 0.00 86 1013.4
20260504211152 51 90 2.0 4.0 0.00 0.00 0.00 86 1013.2
20260504210147 51 0 4.0 7.0 0.00 0.00 0.00 85 1013.3
20260504205143 51 90 5.0 7.0 0.00 0.00 0.00 85 1013.2
20260504204139 51 5.0 9.0 0.00 0.00 0.00 85 1013.1
20260504203135 52 6.0 8.0 0.00 0.00 0.00 84 1013.1
20260504202131 52 3.0 8.0 0.00 0.00 0.00 83 1013.0
20260504201126 52 90 2.0 4.0 0.00 0.00 0.00 83 1012.9
20260504200121 53 90 3.0 7.0 0.00 0.00 0.00 82 1012.7
20260504195115 53 4 5.0 8.0 0.00 0.00 0.00 82 1012.7
20260504194110 53 5.0 6.0 0.00 0.00 0.00 81 1012.7
20260504193105 53 4.0 5.0 0.00 0.00 0.00 80 1012.6
20260504192101 53 2.0 2.0 0.00 0.00 0.00 80 1012.5
20260504191057 53 2.0 4.0 0.00 0.00 0.00 79 1012.5
20260504190053 54 5.0 8.0 0.00 0.00 0.00 78 1012.3
20260504185049 54 5.0 7.0 0.00 0.00 0.00 77 1012.3
20260504184144 55 4.0 6.0 0.00 0.00 0.00 74 1012.4
20260504183139 55 6.0 8.0 0.00 0.00 0.00 72 1012.2
20260504182135 56 0 8.0 10.0 0.00 0.00 0.00 69 1012.2
20260504181151 58 90 3.0 6.0 0.00 0.00 0.00 67 1012.2
20260504180127 58 90 3.0 5.0 0.00 0.00 0.00 70 1012.0
20260504175125 57 270 4.0 6.0 0.00 0.00 0.00 67 1012.1
20260504174120 59 90 3.0 4.0 0.00 0.00 0.00 67 1012.1
20260504173116 58 4.0 5.0 0.00 0.00 0.00 70 1012.1
20260504172111 58 90 4.0 6.0 0.00 0.00 0.00 69 1012.1
20260504171107 58 90 4.0 8.0 0.00 0.00 0.00 68 1012.1